BANGABANDHUSAT-1 (43463 NORAD) Tracking and Keplerian Element Data

This shows tracking and keplerian element data for the satellite.

Feedback or suggestion? Click here.




ElementValue
Catalog43463
NameBANGABANDHUSAT-1
Epoch Orbit193
Epoch Day319.5176062
Epoch Year2018
RAAN313.1083
Inclination0.0072
Eccentricity0.0001722
Argument of Perigee280.2493
Mean Anonmoly126.6558
Mean Motion1.00273034
Decay Rate-3.6E-06
L11 43463U 18044A 18319.51760620 -.00000360 00000-0 00000-0 0 9996
L22 43463 0.0072 313.1083 0001722 280.2493 126.6558 1.00273034 1936

Live tracking and technical data element details for BANGABANDHUSAT-1 (NORAD 43463). BANGABANDHUSAT-1 can be tracked NOW for your location showing map with azimuth and elevation plus other details from your city location.

Track the satellite on the map from your city or location and see movement details for azimuth, elevation, latitude, longitude, range, height, and movement on the map or in text.







IsCatalogInMostPopularTable: catalog: 43463, numindb: 65
Update: records affected: 1



GetName: 43463 BANGABANDHUSAT-1

Hit Count: updated at: Sat, 17 Nov 2018 02:50:05 GMT